Weather History for Marshall, MN

Change the Weather History Date:

Sunday, November 11, 2012

  Actual Average Record
Temperature  
Mean Temperature 28 °F -  
Max Temperature 37 °F 42 °F 66 °F (2005)
Min Temperature 19 °F 25 °F -4 °F (1986)
Degree Days  
Heating Degree Days 37    
Moisture  
Dew Point 15 °F    
Average Humidity 64    
Maximum Humidity 81    
Minimum Humidity 51    
Precipitation  
Precipitation 0.46 in - - ()
Sea Level Pressure  
Sea Level Pressure 29.83 in    
Wind  
Wind Speed 21 mph (WNW)    
Max Wind Speed 29 mph    
Max Gust Speed 34 mph    
Visibility 10 miles    
Events      
Averages and records for this station are not official NWS values.
T = Trace of Precipitation, MM = Missing Value Source: NWS Daily Summary

Daily Weather History Graph

Daily Weather History Graph

Search for Another Location

Airport:

Trip Planner

Search our weather history database for the weather conditions in past years. The results will help you decide how hot, cold, wet, or windy it might be!

Date:

Astronomy

Nov. 11, 2012 Rise Set
Actual Time 7:14 AM CST 4:59 PM CST
Civil Twilight 6:43 AM CST 5:30 PM CST
Nautical Twilight 6:08 AM CST 6:05 PM CST
Astronomical Twilight 5:34 AM CST 6:39 PM CST
Moon 4:25 AM CST (11/11) 3:27 PM CST (11/11)
Length of Visible Light 10h 46m
Length of Day
9h 44m
Waning Crescent, 7% of the Moon is Illuminated
Nov 11
Waning Crescent
Nov 13
New
Nov 20
First Quarter
Nov 28
Full
Dec 6
Last Quarter

Hourly Weather History & Observations

Time (CST) Temp. Windchill Dew Point Humidity Pressure Visibility Wind Dir Wind Speed Gust Speed Precip Events Conditions
12:15 AM 37.4 °F 27.2 °F 30.2 °F 75% 29.63 in 10.0 mi WNW 19.6 mph 25.3 mph N/A   Overcast
12:35 AM 37.4 °F 26.4 °F 30.2 °F 75% 29.63 in 10.0 mi NW 23.0 mph 27.6 mph N/A   Overcast
12:55 AM 37.4 °F 26.9 °F 30.2 °F 75% 29.63 in 10.0 mi NW 20.7 mph 24.2 mph N/A   Overcast
1:15 AM 35.6 °F 23.4 °F 30.2 °F 81% 29.62 in 10.0 mi NW 25.3 mph - N/A   Overcast
1:35 AM 35.6 °F 23.4 °F 28.4 °F 75% 29.63 in 10.0 mi WNW 25.3 mph 28.8 mph N/A   Overcast
1:55 AM 33.8 °F 21.9 °F 26.6 °F 75% 29.66 in 10.0 mi WNW 21.9 mph 26.5 mph N/A   Overcast
2:15 AM 33.8 °F 21.6 °F 26.6 °F 75% 29.65 in 10.0 mi WNW 23.0 mph - N/A   Overcast
2:35 AM 32.0 °F 19.2 °F 24.8 °F 75% 29.68 in 10.0 mi WNW 23.0 mph 26.5 mph N/A   Overcast
2:55 AM 32.0 °F 20.5 °F 24.8 °F 75% 29.69 in 10.0 mi WNW 18.4 mph - N/A   Overcast
3:15 AM 30.2 °F 18.5 °F 24.8 °F 80% 29.69 in 10.0 mi NW 17.3 mph - N/A   Overcast
3:35 AM 30.2 °F 15.7 °F 23.0 °F 75% 29.70 in 10.0 mi WNW 27.6 mph - N/A   Overcast
3:55 AM 30.2 °F 17.1 °F 21.2 °F 69% 29.72 in 10.0 mi WNW 21.9 mph 25.3 mph N/A   Overcast
4:15 AM 30.2 °F 18.1 °F 21.2 °F 69% 29.73 in 10.0 mi WNW 18.4 mph - N/A   Overcast
4:35 AM 30.2 °F 16.2 °F 21.2 °F 69% 29.73 in 10.0 mi WNW 25.3 mph 28.8 mph N/A   Overcast
4:55 AM 28.4 °F 15.8 °F 21.2 °F 74% 29.74 in 10.0 mi NW 18.4 mph 27.6 mph N/A   Overcast
5:35 AM 28.4 °F 14.7 °F 17.6 °F 64% 29.75 in 10.0 mi NW 21.9 mph 32.2 mph N/A   Overcast
5:55 AM 28.4 °F 16.2 °F 19.4 °F 69% 29.77 in 10.0 mi NW 17.3 mph 24.2 mph N/A   Overcast
6:15 AM 26.6 °F 12.0 °F 17.6 °F 69% 29.77 in 10.0 mi NW 23.0 mph 28.8 mph N/A   Overcast
6:35 AM 26.6 °F 12.4 °F 19.4 °F 74% 29.77 in 10.0 mi NW 21.9 mph 25.3 mph N/A   Overcast
6:55 AM 26.6 °F 11.4 °F 17.6 °F 69% 29.79 in 10.0 mi WNW 25.3 mph - N/A   Overcast
7:35 AM 26.6 °F 12.7 °F 15.8 °F 64% 29.80 in 10.0 mi NW 20.7 mph - N/A   Overcast
7:55 AM 24.8 °F 10.7 °F 15.8 °F 69% 29.83 in 10.0 mi WNW 19.6 mph 25.3 mph N/A   Overcast
8:15 AM 24.8 °F 10.7 °F 15.8 °F 69% 29.82 in 10.0 mi NW 19.6 mph - N/A   Overcast
8:35 AM 24.8 °F 10.7 °F 15.8 °F 69% 29.83 in 10.0 mi WNW 19.6 mph 26.5 mph N/A   Overcast
8:55 AM 24.8 °F 11.1 °F 14.0 °F 64% 29.84 in 10.0 mi WNW 18.4 mph - N/A   Overcast
9:35 AM 24.8 °F 11.9 °F 15.8 °F 69% 29.84 in 10.0 mi WNW 16.1 mph - N/A   Mostly Cloudy
9:55 AM 24.8 °F 11.1 °F 14.0 °F 64% 29.83 in 10.0 mi WNW 18.4 mph - N/A   Mostly Cloudy
10:15 AM 24.8 °F 11.1 °F 14.0 °F 64% 29.84 in 10.0 mi WNW 18.4 mph 24.2 mph N/A   Mostly Cloudy
10:35 AM 24.8 °F 10.3 °F 12.2 °F 59% 29.85 in 10.0 mi WNW 20.7 mph 26.5 mph N/A   Scattered Clouds
10:55 AM 26.6 °F 13.1 °F 12.2 °F 55% 29.85 in 10.0 mi West 19.6 mph 26.5 mph N/A   Scattered Clouds
11:15 AM 24.8 °F 9.6 °F 14.0 °F 64% 29.83 in 10.0 mi WNW 23.0 mph 26.5 mph N/A   Scattered Clouds
11:35 AM 26.6 °F 13.4 °F 14.0 °F 59% 29.86 in 10.0 mi WNW 18.4 mph 28.8 mph N/A   Scattered Clouds
12:15 PM 26.6 °F 12.4 °F 12.2 °F 55% 29.85 in 10.0 mi WNW 21.9 mph 27.6 mph N/A   Scattered Clouds
12:35 PM 26.6 °F 12.4 °F 12.2 °F 55% 29.85 in 10.0 mi WNW 21.9 mph 29.9 mph N/A   Scattered Clouds
12:55 PM 26.6 °F 10.8 °F 12.2 °F 55% 29.83 in 10.0 mi WNW 27.6 mph - N/A   Partly Cloudy
1:15 PM 26.6 °F 11.7 °F 12.2 °F 55% 29.85 in 10.0 mi WNW 24.2 mph 28.8 mph N/A   Partly Cloudy
1:35 PM 26.6 °F 11.4 °F 12.2 °F 55% 29.85 in 10.0 mi WNW 25.3 mph 29.9 mph N/A   Scattered Clouds
1:55 PM 26.6 °F 11.7 °F 12.2 °F 55% 29.84 in 10.0 mi WNW 24.2 mph 31.1 mph N/A   Scattered Clouds
2:15 PM 26.6 °F 12.4 °F 10.4 °F 51% 29.85 in 10.0 mi WNW 21.9 mph 31.1 mph N/A   Partly Cloudy
2:35 PM 24.8 °F 9.3 °F 10.4 °F 54% 29.85 in 10.0 mi West 24.2 mph 29.9 mph N/A   Partly Cloudy
2:55 PM 26.6 °F 12.4 °F 10.4 °F 51% 29.85 in 10.0 mi WNW 21.9 mph 31.1 mph N/A   Partly Cloudy
3:15 PM 24.8 °F 9.6 °F 10.4 °F 54% 29.86 in 10.0 mi WNW 23.0 mph 29.9 mph N/A   Clear
3:35 PM 24.8 °F 9.0 °F 10.4 °F 54% 29.86 in 10.0 mi WNW 25.3 mph 31.1 mph N/A   Clear
3:55 PM 24.8 °F 9.6 °F 10.4 °F 54% 29.87 in 10.0 mi West 23.0 mph 29.9 mph N/A   Partly Cloudy
4:15 PM 24.8 °F 9.0 °F 10.4 °F 54% 29.88 in 10.0 mi West 25.3 mph 31.1 mph N/A   Clear
4:35 PM 23.0 °F 5.7 °F 8.6 °F 54% 29.88 in 10.0 mi WNW 28.8 mph 34.5 mph N/A   Clear
4:55 PM 21.2 °F 6.4 °F 10.4 °F 63% 29.90 in 10.0 mi WNW 18.4 mph 28.8 mph N/A   Clear
5:15 PM 21.2 °F 5.2 °F 10.4 °F 63% 29.90 in 10.0 mi WNW 21.9 mph 29.9 mph N/A   Clear
5:35 PM 21.2 °F 5.6 °F 8.6 °F 58% 29.91 in 10.0 mi WNW 20.7 mph 28.8 mph N/A   Clear
5:55 PM 19.4 °F 2.5 °F 10.4 °F 68% 29.92 in 10.0 mi WNW 23.0 mph 28.8 mph N/A   Clear
6:15 PM 19.4 °F 1.8 °F 8.6 °F 63% 29.92 in 10.0 mi WNW 25.3 mph 28.8 mph N/A   Clear
6:35 PM 19.4 °F 3.2 °F 8.6 °F 63% 29.93 in 10.0 mi WNW 20.7 mph 29.9 mph N/A   Clear
6:55 PM 19.4 °F 2.5 °F 8.6 °F 63% 29.94 in 10.0 mi WNW 23.0 mph - N/A   Clear
7:15 PM 21.2 °F 6.0 °F 10.4 °F 63% 29.94 in 10.0 mi WNW 19.6 mph 26.5 mph N/A   Mostly Cloudy
7:35 PM 21.2 °F 6.4 °F 10.4 °F 63% 29.94 in 10.0 mi WNW 18.4 mph 26.5 mph N/A   Overcast
7:55 PM 21.2 °F 5.2 °F 8.6 °F 58% 29.95 in 10.0 mi WNW 21.9 mph 32.2 mph N/A   Overcast
8:15 PM 21.2 °F 4.5 °F 10.4 °F 63% 29.95 in 10.0 mi WNW 24.2 mph - N/A   Overcast
8:35 PM 21.2 °F 7.3 °F 10.4 °F 63% 29.96 in 9.0 mi WNW 16.1 mph - N/A   Overcast
8:55 PM 21.2 °F 7.8 °F 10.4 °F 63% 29.96 in 10.0 mi West 15.0 mph 23.0 mph N/A   Overcast
9:15 PM 21.2 °F 6.4 °F 10.4 °F 63% 29.96 in 10.0 mi West 18.4 mph 24.2 mph N/A   Overcast
9:35 PM 21.2 °F 6.0 °F 8.6 °F 58% 29.96 in 10.0 mi WNW 19.6 mph 27.6 mph N/A   Overcast
9:55 PM 21.2 °F 5.6 °F 6.8 °F 54% 29.97 in 10.0 mi WNW 20.7 mph 32.2 mph N/A   Overcast
10:15 PM 19.4 °F 4.5 °F 6.8 °F 58% 29.96 in 10.0 mi WNW 17.3 mph 27.6 mph N/A   Overcast
10:35 PM 19.4 °F 4.1 °F 8.6 °F 63% 29.96 in 10.0 mi West 18.4 mph 23.0 mph N/A   Scattered Clouds
10:55 PM 19.4 °F 2.8 °F 8.6 °F 63% 29.96 in 10.0 mi West 21.9 mph 26.5 mph N/A   Clear
11:15 PM 19.4 °F 4.5 °F 8.6 °F 63% 29.96 in 10.0 mi WNW 17.3 mph - N/A   Partly Cloudy
11:35 PM 19.4 °F 3.6 °F 8.6 °F 63% 29.96 in 10.0 mi West 19.6 mph - N/A   Clear
11:55 PM 19.4 °F 5.5 °F 8.6 °F 63% 29.97 in 10.0 mi West 15.0 mph 21.9 mph N/A   Partly Cloudy